QPF
0.00 0.00 0.00 0.00 0.00 0.00 0.00 0.00 0.00 0.00 0.00 0.00 0.00 0.01 0.01 0.01 0.02 0.02 0.02 0.02 0.02 0.02 0.02 0.02 0.01 0.01 0.01 0.02 0.02 0.02 0.04 0.04 0.04 0.05 0.04 0.03 0.04 0.03 0.03 0.02 0.02 0.02 0.02 0.03
0.00 0.00 0.00 0.00 0.00 0.00 0.00 0.00 0.00 0.00 0.00 0.00 0.00 0.00 0.01 0.01 0.01 0.02 0.03 0.03 0.03 0.03 0.02 0.01 0.01 0.01 0.02 0.02 0.01 0.02 0.03 0.05 0.06 0.05 0.04 0.03 0.03 0.04 0.03 0.03 0.03 0.02 0.02 0.02
0.01 0.00 0.00 0.00 0.00 0.00 0.00 0.00 0.00 0.00 0.00 0.00 0.00 0.00 0.01 0.01 0.01 0.02 0.03 0.03 0.03 0.03 0.03 0.03 0.02 0.02 0.02 0.03 0.04 0.04 0.06 0.07 0.07 0.07 0.05 0.04 0.03 0.03 0.03 0.03 0.03 0.03 0.03 0.03
0.01 0.01 0.01 0.00 0.00 0.00 0.00 0.00 0.00 0.00 0.00 0.01 0.01 0.01 0.01 0.02 0.02 0.02 0.02 0.02 0.02 0.02 0.02 0.02 0.02 0.03 0.03 0.04 0.05 0.05 0.05 0.05 0.04 0.04 0.05 0.04 0.03 0.02 0.03 0.03 0.03 0.03 0.04 0.04
0.01 0.01 0.00 0.00 0.00 0.00 0.00 0.01 0.00 0.00 0.01 0.01 0.01 0.01 0.01 0.01 0.01 0.01 0.02 0.02 0.02 0.02 0.02 0.02 0.02 0.02 0.03 0.03 0.04 0.05 0.04 0.03 0.03 0.03 0.04 0.04 0.03 0.02 0.03 0.04 0.04 0.02 0.02 0.02
0.01 0.01 0.00 0.00 0.00 0.00 0.01 0.01 0.01 0.01 0.01 0.01 0.01 0.01 0.01 0.01 0.01 0.02 0.02 0.02 0.02 0.02 0.02 0.02 0.03 0.02 0.02 0.03 0.03 0.04 0.03 0.03 0.03 0.04 0.04 0.04 0.04 0.04 0.05 0.05 0.04 0.03 0.01 0.01
0.00 0.00 0.01 0.01 0.01 0.01 0.02 0.01 0.02 0.01 0.02 0.02 0.01 0.02 0.02 0.02 0.02 0.02 0.02 0.02 0.02 0.02 0.02 0.02 0.02 0.03 0.02 0.02 0.03 0.04 0.05 0.06 0.07 0.08 0.09 0.08 0.07 0.07 0.09 0.10 0.08 0.03 0.01 0.00
0.00 0.00 0.01 0.01 0.01 0.02 0.04 0.02 0.02 0.02 0.02 0.02 0.02 0.03 0.02 0.01 0.02 0.02 0.02 0.03 0.04 0.04 0.03 0.02 0.02 0.02 0.02 0.02 0.03 0.06 0.08 0.10 0.11 0.11 0.11 0.11 0.11 0.11 0.10 0.09 0.08 0.05 0.03 0.01
0.00 0.01 0.01 0.02 0.02 0.02 0.05 0.04 0.03 0.02 0.02 0.03 0.03 0.03 0.02 0.02 0.03 0.02 0.03 0.03 0.03 0.04 0.04 0.02 0.02 0.02 0.02 0.01 0.02 0.04 0.05 0.07 0.08 0.08 0.07 0.07 0.06 0.06 0.05 0.05 0.04 0.03 0.02 0.02
0.01 0.03 0.02 0.02 0.03 0.03 0.04 0.04 0.03 0.02 0.02 0.02 0.03 0.03 0.03 0.03 0.03 0.03 0.03 0.03 0.03 0.03 0.04 0.04 0.04 0.03 0.03 0.02 0.01 0.01 0.01 0.02 0.03 0.04 0.04 0.03 0.03 0.03 0.02 0.02 0.02 0.02 0.02 0.02
0.02 0.05 0.04 0.04 0.03 0.03 0.04 0.04 0.04 0.02 0.01 0.02 0.03 0.03 0.02 0.02 0.02 0.02 0.03 0.03 0.02 0.03 0.03 0.04 0.03 0.03 0.02 0.02 0.01 0.01 0.02 0.02 0.02 0.02 0.02 0.02 0.03 0.04 0.04 0.04 0.05 0.05 0.04 0.03
0.02 0.04 0.03 0.02 0.01 0.01 0.02 0.03 0.03 0.03 0.02 0.02 0.02 0.02 0.02 0.01 0.01 0.01 0.01 0.02 0.02 0.03 0.03 0.03 0.03 0.02 0.02 0.02 0.01 0.01 0.01 0.01 0.02 0.02 0.03 0.03 0.04 0.04 0.04 0.05 0.06 0.04 0.03 0.02
0.01 0.02 0.02 0.02 0.01 0.01 0.01 0.01 0.02 0.02 0.01 0.02 0.03 0.03 0.02 0.01 0.01 0.01 0.01 0.01 0.01 0.01 0.02 0.02 0.02 0.02 0.01 0.01 0.01 0.01 0.01 0.02 0.02 0.04 0.05 0.07 0.07 0.08 0.07 0.06 0.06 0.05 0.04 0.03
0.01 0.01 0.02 0.01 0.01 0.01 0.01 0.01 0.02 0.02 0.02 0.02 0.03 0.03 0.02 0.02 0.02 0.03 0.03 0.02 0.01 0.01 0.01 0.01 0.01 0.01 0.02 0.02 0.01 0.02 0.03 0.04 0.04 0.05 0.06 0.08 0.08 0.07 0.05 0.05 0.05 0.05 0.04 0.02
0.02 0.01 0.01 0.01 0.01 0.01 0.01 0.01 0.02 0.02 0.03 0.03 0.03 0.02 0.02 0.02 0.02 0.04 0.06 0.03 0.01 0.01 0.01 0.01 0.01 0.01 0.02 0.02 0.04 0.05 0.07 0.08 0.07 0.05 0.06 0.07 0.07 0.05 0.04 0.03 0.02 0.02 0.02 0.01
0.03 0.02 0.01 0.01 0.01 0.01 0.01 0.02 0.02 0.02 0.03 0.03 0.04 0.04 0.03 0.03 0.03 0.03 0.03 0.02 0.01 0.01 0.01 0.00 0.00 0.01 0.01 0.03 0.05 0.07 0.07 0.07 0.05 0.04 0.03 0.04 0.03 0.03 0.04 0.03 0.02 0.01 0.01 0.01
0.02 0.02 0.01 0.01 0.01 0.02 0.02 0.03 0.03 0.02 0.02 0.03 0.04 0.05 0.05 0.04 0.03 0.03 0.02 0.02 0.01 0.01 0.00 0.00 0.00 0.00 0.01 0.01 0.02 0.02 0.03 0.03 0.02 0.02 0.02 0.02 0.02 0.02 0.02 0.02 0.02 0.02 0.02 0.03
0.02 0.02 0.01 0.01 0.01 0.01 0.02 0.02 0.03 0.04 0.04 0.03 0.03 0.04 0.05 0.05 0.04 0.03 0.02 0.01 0.01 0.01 0.01 0.00 0.00 0.00 0.01 0.01 0.02 0.03 0.03 0.03 0.02 0.02 0.03 0.03 0.02 0.02 0.02 0.02 0.02 0.02 0.02 0.03
0.02 0.01 0.01 0.01 0.01 0.01 0.01 0.02 0.04 0.05 0.07 0.07 0.06 0.05 0.05 0.06 0.06 0.05 0.03 0.02 0.01 0.01 0.01 0.01 0.00 0.01 0.01 0.02 0.02 0.03 0.04 0.04 0.04 0.03 0.03 0.02 0.02 0.02 0.02 0.02 0.01 0.01 0.02 0.02
0.02 0.02 0.01 0.01 0.01 0.01 0.01 0.01 0.03 0.04 0.05 0.07 0.07 0.07 0.07 0.07 0.06 0.04 0.03 0.02 0.01 0.01 0.01 0.01 0.01 0.01 0.01 0.01 0.02 0.02 0.03 0.04 0.05 0.05 0.05 0.03 0.02 0.02 0.02 0.01 0.01 0.01 0.01 0.01
0.02 0.02 0.02 0.01 0.02 0.02 0.01 0.01 0.02 0.03 0.04 0.05 0.06 0.07 0.08 0.08 0.06 0.04 0.02 0.02 0.01 0.01 0.01 0.01 0.01 0.01 0.01 0.02 0.02 0.02 0.03 0.04 0.04 0.05 0.06 0.05 0.03 0.02 0.02 0.01 0.01 0.01 0.01 0.01
0.02 0.02 0.02 0.02 0.02 0.02 0.02 0.02 0.03 0.03 0.03 0.04 0.04 0.05 0.06 0.07 0.06 0.05 0.03 0.02 0.02 0.02 0.01 0.01 0.01 0.01 0.02 0.02 0.02 0.03 0.03 0.04 0.04 0.04 0.04 0.04 0.03 0.02 0.02 0.01 0.01 0.01 0.01 0.01
0.02 0.02 0.03 0.03 0.02 0.04 0.04 0.04 0.04 0.04 0.04 0.04 0.04 0.03 0.03 0.05 0.06 0.05 0.04 0.02 0.02 0.01 0.01 0.02 0.02 0.03 0.03 0.03 0.03 0.03 0.03 0.04 0.04 0.04 0.04 0.04 0.04 0.04 0.03 0.02 0.02 0.02 0.01 0.01
0.04 0.03 0.03 0.04 0.04 0.05 0.05 0.05 0.05 0.04 0.04 0.04 0.04 0.03 0.03 0.04 0.05 0.05 0.03 0.02 0.02 0.03 0.03 0.02 0.03 0.03 0.03 0.03 0.03 0.04 0.03 0.03 0.03 0.04 0.04 0.04 0.05 0.06 0.05 0.04 0.03 0.02 0.01 0.01
0.06 0.05 0.05 0.04 0.04 0.04 0.04 0.06 0.07 0.05 0.04 0.04 0.04 0.04 0.05 0.05 0.04 0.04 0.03 0.03 0.03 0.03 0.02 0.02 0.02 0.02 0.02 0.02 0.02 0.02 0.02 0.02 0.02 0.02 0.03 0.03 0.03 0.03 0.03 0.03 0.02 0.02 0.01 0.01
0.05 0.04 0.04 0.04 0.04 0.03 0.03 0.04 0.05 0.05 0.05 0.05 0.06 0.06 0.06 0.06 0.05 0.04 0.03 0.02 0.02 0.02 0.02 0.02 0.02 0.02 0.01 0.02 0.02 0.02 0.03 0.02 0.02 0.02 0.02 0.02 0.02 0.01 0.01 0.01 0.01 0.02 0.02 0.02
0.04 0.04 0.04 0.04 0.05 0.05 0.05 0.05 0.04 0.04 0.05 0.05 0.05 0.07 0.08 0.07 0.07 0.07 0.04 0.03 0.02 0.02 0.02 0.02 0.02 0.02 0.02 0.03 0.03 0.03 0.04 0.03 0.02 0.02 0.02 0.01 0.01 0.01 0.01 0.01 0.01 0.01 0.02 0.03
MSLP
1015.45 1016.05 1016.58 1017.04 1017.44 1017.79 1018.09 1018.33 1018.50 1018.60 1018.61 1018.55 1018.41 1018.24 1018.04 1017.84 1017.67 1017.55 1017.47 1017.44 1017.45 1017.48 1017.51 1017.53 1017.52 1017.49 1017.43 1017.34 1017.22 1017.08 1016.92 1016.75 1016.57 1016.39 1016.22 1016.06 1015.92 1015.80 1015.71 1015.63 1015.57 1015.50 1015.43 1015.33
1016.46 1017.00 1017.41 1017.71 1017.92 1018.07 1018.17 1018.26 1018.32 1018.37 1018.40 1018.41 1018.40 1018.36 1018.31 1018.24 1018.17 1018.10 1018.03 1017.97 1017.93 1017.89 1017.85 1017.82 1017.78 1017.73 1017.68 1017.60 1017.51 1017.41 1017.29 1017.17 1017.04 1016.91 1016.79 1016.69 1016.60 1016.54 1016.49 1016.45 1016.41 1016.36 1016.28 1016.16
1017.39 1017.84 1018.14 1018.29 1018.34 1018.33 1018.29 1018.25 1018.23 1018.24 1018.28 1018.35 1018.43 1018.50 1018.55 1018.58 1018.58 1018.55 1018.49 1018.42 1018.34 1018.26 1018.18 1018.11 1018.05 1017.98 1017.92 1017.86 1017.78 1017.70 1017.60 1017.50 1017.40 1017.31 1017.23 1017.18 1017.14 1017.13 1017.13 1017.13 1017.12 1017.08 1017.01 1016.89
1018.18 1018.52 1018.68 1018.71 1018.64 1018.51 1018.37 1018.26 1018.19 1018.19 1018.25 1018.35 1018.49 1018.63 1018.76 1018.85 1018.90 1018.90 1018.87 1018.80 1018.71 1018.62 1018.52 1018.44 1018.36 1018.28 1018.21 1018.14 1018.05 1017.96 1017.85 1017.75 1017.65 1017.57 1017.52 1017.49 1017.49 1017.52 1017.57 1017.61 1017.63 1017.62 1017.56 1017.44
1018.80 1018.99 1019.02 1018.93 1018.77 1018.56 1018.37 1018.23 1018.15 1018.16 1018.24 1018.38 1018.55 1018.74 1018.91 1019.04 1019.13 1019.17 1019.16 1019.12 1019.05 1018.97 1018.89 1018.81 1018.73 1018.65 1018.57 1018.47 1018.35 1018.22 1018.08 1017.95 1017.83 1017.73 1017.67 1017.65 1017.68 1017.73 1017.81 1017.88 1017.94 1017.95 1017.91 1017.80
1019.21 1019.24 1019.14 1018.95 1018.71 1018.47 1018.26 1018.12 1018.07 1018.10 1018.21 1018.38 1018.59 1018.81 1019.00 1019.17 1019.29 1019.36 1019.39 1019.38 1019.36 1019.32 1019.27 1019.22 1019.16 1019.08 1018.98 1018.85 1018.70 1018.52 1018.33 1018.14 1017.97 1017.84 1017.76 1017.73 1017.75 1017.82 1017.91 1018.01 1018.09 1018.12 1018.10 1018.01
1019.41 1019.27 1019.05 1018.77 1018.49 1018.24 1018.05 1017.94 1017.92 1018.00 1018.15 1018.35 1018.58 1018.82 1019.03 1019.22 1019.36 1019.47 1019.54 1019.59 1019.62 1019.64 1019.64 1019.63 1019.60 1019.53 1019.42 1019.27 1019.08 1018.85 1018.61 1018.36 1018.14 1017.97 1017.85 1017.80 1017.81 1017.87 1017.97 1018.07 1018.16 1018.21 1018.19 1018.11
1019.39 1019.12 1018.79 1018.46 1018.15 1017.91 1017.76 1017.70 1017.74 1017.86 1018.05 1018.28 1018.53 1018.78 1019.00 1019.20 1019.37 1019.51 1019.63 1019.73 1019.83 1019.91 1019.97 1020.01 1020.02 1019.97 1019.87 1019.70 1019.47 1019.21 1018.92 1018.63 1018.37 1018.16 1018.01 1017.93 1017.92 1017.97 1018.05 1018.15 1018.23 1018.28 1018.26 1018.19
1019.20 1018.82 1018.43 1018.07 1017.77 1017.57 1017.46 1017.46 1017.56 1017.73 1017.95 1018.20 1018.46 1018.71 1018.94 1019.14 1019.33 1019.50 1019.66 1019.82 1019.97 1020.12 1020.24 1020.33 1020.37 1020.35 1020.26 1020.09 1019.85 1019.57 1019.25 1018.94 1018.66 1018.42 1018.25 1018.15 1018.13 1018.16 1018.22 1018.29 1018.35 1018.38 1018.36 1018.27
1018.88 1018.45 1018.04 1017.68 1017.41 1017.25 1017.21 1017.27 1017.41 1017.62 1017.87 1018.13 1018.39 1018.64 1018.86 1019.07 1019.27 1019.47 1019.67 1019.87 1020.07 1020.27 1020.44 1020.58 1020.65 1020.65 1020.57 1020.41 1020.18 1019.89 1019.58 1019.27 1018.98 1018.75 1018.57 1018.47 1018.42 1018.43 1018.46 1018.51 1018.54 1018.53 1018.48 1018.37
1018.50 1018.06 1017.66 1017.34 1017.13 1017.03 1017.05 1017.16 1017.34 1017.58 1017.84 1018.10 1018.35 1018.59 1018.81 1019.02 1019.23 1019.44 1019.67 1019.91 1020.15 1020.38 1020.59 1020.75 1020.85 1020.87 1020.80 1020.65 1020.44 1020.17 1019.88 1019.58 1019.32 1019.09 1018.93 1018.82 1018.77 1018.75 1018.76 1018.76 1018.74 1018.69 1018.59 1018.45
1018.09 1017.69 1017.35 1017.09 1016.95 1016.92 1016.99 1017.15 1017.37 1017.61 1017.87 1018.13 1018.37 1018.59 1018.80 1019.00 1019.22 1019.45 1019.70 1019.97 1020.23 1020.49 1020.72 1020.89 1021.00 1021.02 1020.96 1020.83 1020.62 1020.38 1020.11 1019.85 1019.61 1019.42 1019.27 1019.17 1019.10 1019.06 1019.03 1018.98 1018.91 1018.80 1018.65 1018.47
1017.72 1017.38 1017.12 1016.94 1016.88 1016.92 1017.04 1017.24 1017.47 1017.72 1017.97 1018.21 1018.43 1018.63 1018.84 1019.05 1019.27 1019.52 1019.79 1020.07 1020.36 1020.62 1020.85 1021.03 1021.13 1021.15 1021.09 1020.95 1020.76 1020.54 1020.30 1020.07 1019.86 1019.69 1019.55 1019.45 1019.37 1019.30 1019.22 1019.12 1018.99 1018.82 1018.61 1018.38
1017.40 1017.14 1016.97 1016.88 1016.90 1017.00 1017.17 1017.39 1017.63 1017.88 1018.11 1018.33 1018.54 1018.73 1018.94 1019.15 1019.39 1019.65 1019.94 1020.24 1020.53 1020.80 1021.02 1021.19 1021.27 1021.28 1021.20 1021.07 1020.88 1020.66 1020.44 1020.23 1020.05 1019.89 1019.76 1019.66 1019.56 1019.45 1019.33 1019.17 1018.97 1018.74 1018.47 1018.18
1017.14 1016.97 1016.88 1016.89 1016.98 1017.14 1017.36 1017.60 1017.84 1018.07 1018.29 1018.49 1018.68 1018.87 1019.08 1019.30 1019.56 1019.84 1020.15 1020.46 1020.76 1021.02 1021.23 1021.37 1021.44 1021.42 1021.33 1021.18 1020.99 1020.78 1020.57 1020.37 1020.19 1020.04 1019.91 1019.79 1019.67 1019.52 1019.34 1019.13 1018.87 1018.58 1018.25 1017.91
1016.94 1016.85 1016.86 1016.95 1017.11 1017.33 1017.57 1017.83 1018.07 1018.30 1018.50 1018.68 1018.86 1019.04 1019.25 1019.49 1019.76 1020.06 1020.37 1020.70 1020.99 1021.25 1021.45 1021.57 1021.61 1021.57 1021.46 1021.30 1021.10 1020.89 1020.68 1020.49 1020.31 1020.16 1020.02 1019.88 1019.72 1019.54 1019.32 1019.05 1018.74 1018.39 1018.02 1017.64
1016.81 1016.80 1016.89 1017.05 1017.28 1017.55 1017.82 1018.09 1018.33 1018.54 1018.73 1018.89 1019.06 1019.24 1019.44 1019.68 1019.96 1020.27 1020.59 1020.91 1021.20 1021.45 1021.63 1021.74 1021.76 1021.70 1021.58 1021.40 1021.20 1020.99 1020.78 1020.59 1020.42 1020.26 1020.11 1019.95 1019.77 1019.55 1019.29 1018.98 1018.63 1018.24 1017.84 1017.43
1016.75 1016.82 1016.98 1017.21 1017.50 1017.80 1018.10 1018.38 1018.62 1018.82 1018.98 1019.13 1019.28 1019.44 1019.63 1019.86 1020.13 1020.43 1020.75 1021.06 1021.33 1021.56 1021.73 1021.81 1021.82 1021.75 1021.62 1021.45 1021.25 1021.05 1020.85 1020.67 1020.50 1020.35 1020.19 1020.02 1019.82 1019.58 1019.30 1018.96 1018.59 1018.18 1017.74 1017.31
1016.77 1016.91 1017.13 1017.43 1017.76 1018.10 1018.42 1018.70 1018.94 1019.12 1019.27 1019.39 1019.51 1019.64 1019.81 1020.01 1020.25 1020.52 1020.81 1021.09 1021.34 1021.55 1021.69 1021.76 1021.76 1021.69 1021.57 1021.41 1021.23 1021.04 1020.87 1020.71 1020.56 1020.41 1020.26 1020.09 1019.88 1019.64 1019.34 1018.99 1018.61 1018.19 1017.75 1017.31
1016.86 1017.06 1017.35 1017.70 1018.07 1018.43 1018.76 1019.05 1019.27 1019.43 1019.55 1019.64 1019.73 1019.82 1019.94 1020.10 1020.30 1020.52 1020.76 1020.99 1021.21 1021.38 1021.50 1021.56 1021.55 1021.49 1021.39 1021.25 1021.10 1020.95 1020.81 1020.67 1020.55 1020.42 1020.29 1020.13 1019.93 1019.69 1019.40 1019.05 1018.67 1018.26 1017.82 1017.38
1017.02 1017.28 1017.61 1017.99 1018.39 1018.76 1019.10 1019.37 1019.57 1019.71 1019.80 1019.85 1019.89 1019.94 1020.00 1020.11 1020.24 1020.40 1020.58 1020.77 1020.94 1021.07 1021.17 1021.21 1021.21 1021.17 1021.09 1020.98 1020.87 1020.76 1020.66 1020.56 1020.47 1020.37 1020.26 1020.11 1019.93 1019.70 1019.43 1019.10 1018.73 1018.32 1017.90 1017.46
1017.21 1017.50 1017.86 1018.26 1018.66 1019.04 1019.36 1019.61 1019.78 1019.89 1019.94 1019.96 1019.95 1019.95 1019.96 1020.00 1020.08 1020.18 1020.30 1020.43 1020.56 1020.66 1020.73 1020.77 1020.78 1020.75 1020.70 1020.63 1020.56 1020.49 1020.43 1020.37 1020.31 1020.24 1020.15 1020.02 1019.86 1019.65 1019.39 1019.08 1018.73 1018.34 1017.93 1017.50
1017.38 1017.69 1018.06 1018.45 1018.83 1019.18 1019.47 1019.69 1019.84 1019.91 1019.93 1019.90 1019.86 1019.81 1019.78 1019.77 1019.80 1019.85 1019.93 1020.02 1020.11 1020.19 1020.25 1020.29 1020.30 1020.29 1020.27 1020.24 1020.21 1020.17 1020.14 1020.11 1020.08 1020.03 1019.96 1019.85 1019.71 1019.52 1019.28 1018.99 1018.65 1018.28 1017.88 1017.47
1017.48 1017.78 1018.13 1018.48 1018.83 1019.13 1019.38 1019.56 1019.67 1019.71 1019.69 1019.64 1019.57 1019.50 1019.45 1019.41 1019.41 1019.44 1019.49 1019.55 1019.63 1019.70 1019.76 1019.80 1019.83 1019.85 1019.85 1019.84 1019.84 1019.83 1019.82 1019.81 1019.79 1019.76 1019.70 1019.61 1019.48 1019.30 1019.08 1018.81 1018.50 1018.15 1017.76 1017.35
1017.45 1017.72 1018.02 1018.32 1018.60 1018.85 1019.04 1019.17 1019.24 1019.26 1019.22 1019.16 1019.09 1019.02 1018.96 1018.93 1018.93 1018.96 1019.01 1019.08 1019.15 1019.23 1019.30 1019.36 1019.40 1019.43 1019.45 1019.47 1019.47 1019.48 1019.48 1019.48 1019.47 1019.43 1019.38 1019.30 1019.18 1019.02 1018.82 1018.57 1018.27 1017.94 1017.58 1017.18
1017.27 1017.48 1017.71 1017.93 1018.15 1018.32 1018.46 1018.54 1018.58 1018.57 1018.54 1018.48 1018.42 1018.38 1018.35 1018.35 1018.37 1018.43 1018.51 1018.60 1018.70 1018.79 1018.88 1018.96 1019.01 1019.06 1019.09 1019.10 1019.12 1019.12 1019.12 1019.11 1019.09 1019.06 1019.01 1018.94 1018.83 1018.69 1018.50 1018.28 1018.02 1017.71 1017.37 1016.99
1016.91 1017.05 1017.20 1017.35 1017.48 1017.59 1017.67 1017.71 1017.72 1017.71 1017.69 1017.66 1017.63 1017.63 1017.65 1017.70 1017.78 1017.88 1018.00 1018.13 1018.26 1018.38 1018.49 1018.58 1018.64 1018.69 1018.72 1018.73 1018.73 1018.72 1018.71 1018.69 1018.67 1018.63 1018.59 1018.52 1018.43 1018.31 1018.16 1017.97 1017.74 1017.46 1017.15 1016.80
Thickness
5766 5773 5774 5774 5773 5769 5763 5756 5749 5756 5758 5771 5776 5777 5778 5777 5774 5769 5766 5763 5761 5757 5753 5751 5748 5745 5743 5740 5737 5734 5730 5727 5724 5721 5718 5714 5711 5707 5704 5701 5699 5696 5694 5692
5759 5768 5769 5766 5769 5768 5766 5764 5759 5760 5761 5776 5777 5775 5772 5771 5769 5765 5762 5760 5757 5753 5749 5746 5743 5740 5737 5734 5731 5728 5724 5721 5719 5715 5712 5708 5705 5701 5698 5695 5693 5690 5688 5686
5737 5752 5757 5747 5760 5763 5764 5766 5762 5756 5764 5770 5768 5767 5767 5766 5765 5762 5760 5757 5753 5749 5746 5743 5740 5737 5733 5729 5726 5721 5718 5715 5712 5709 5706 5703 5700 5696 5692 5689 5686 5684 5682 5680
5723 5734 5724 5747 5769 5768 5763 5764 5765 5764 5766 5766 5766 5766 5766 5765 5761 5759 5756 5753 5749 5745 5742 5739 5736 5732 5728 5725 5721 5717 5713 5709 5707 5704 5701 5697 5694 5690 5686 5683 5680 5678 5675 5673
5711 5712 5723 5745 5760 5760 5754 5753 5763 5760 5761 5761 5763 5760 5756 5760 5759 5757 5754 5750 5746 5743 5740 5735 5731 5728 5723 5718 5714 5710 5707 5704 5702 5700 5696 5692 5689 5685 5682 5677 5674 5671 5669 5667
5705 5708 5708 5735 5755 5761 5754 5742 5759 5757 5754 5754 5753 5741 5744 5754 5754 5751 5749 5746 5743 5739 5735 5730 5726 5723 5718 5713 5709 5705 5703 5701 5698 5695 5691 5687 5684 5680 5676 5672 5669 5665 5662 5660
5701 5703 5714 5737 5747 5752 5730 5736 5752 5752 5750 5749 5744 5744 5747 5749 5747 5745 5743 5740 5737 5733 5729 5725 5721 5716 5711 5707 5704 5702 5700 5696 5693 5690 5687 5683 5679 5675 5670 5666 5662 5659 5655 5654
5691 5694 5705 5730 5735 5731 5732 5742 5745 5746 5746 5743 5741 5741 5742 5741 5738 5737 5733 5730 5728 5724 5721 5718 5715 5711 5705 5702 5701 5697 5694 5690 5686 5684 5682 5679 5673 5669 5665 5661 5657 5653 5649 5648
5694 5699 5711 5719 5722 5728 5731 5733 5738 5739 5739 5738 5734 5733 5733 5731 5729 5728 5726 5722 5719 5715 5710 5709 5707 5704 5700 5697 5695 5691 5687 5683 5680 5677 5674 5671 5667 5663 5659 5655 5651 5648 5645 5643
5690 5700 5707 5712 5718 5723 5727 5728 5732 5733 5732 5731 5727 5725 5724 5722 5720 5718 5716 5714 5711 5707 5702 5700 5699 5697 5695 5692 5689 5685 5680 5677 5674 5670 5667 5664 5661 5658 5654 5650 5646 5643 5640 5638
5682 5692 5699 5706 5710 5714 5719 5722 5724 5725 5724 5723 5720 5717 5716 5714 5711 5710 5708 5706 5703 5700 5697 5694 5692 5690 5688 5686 5683 5678 5675 5671 5668 5665 5662 5658 5655 5652 5649 5646 5643 5639 5636 5634
5676 5685 5687 5693 5702 5706 5708 5711 5712 5713 5712 5714 5713 5710 5709 5707 5705 5703 5701 5698 5695 5693 5690 5688 5685 5683 5682 5680 5677 5672 5668 5665 5662 5659 5656 5652 5648 5645 5643 5641 5639 5636 5633 5630
5678 5683 5684 5689 5694 5698 5700 5702 5704 5704 5704 5703 5703 5703 5701 5699 5696 5694 5693 5691 5689 5686 5684 5682 5679 5677 5676 5674 5671 5667 5663 5660 5657 5654 5651 5647 5643 5640 5637 5635 5633 5631 5628 5626
5672 5674 5675 5680 5684 5689 5692 5694 5695 5694 5694 5694 5693 5693 5692 5691 5688 5687 5684 5683 5682 5680 5678 5676 5674 5672 5671 5668 5665 5661 5658 5655 5652 5649 5646 5642 5638 5635 5632 5630 5627 5625 5624 5621
5665 5667 5668 5672 5676 5679 5682 5683 5683 5683 5684 5684 5685 5684 5683 5681 5680 5678 5677 5676 5675 5673 5671 5669 5667 5666 5665 5662 5659 5655 5652 5649 5647 5644 5640 5637 5633 5630 5628 5625 5622 5620 5618 5617
5656 5659 5661 5663 5665 5668 5670 5672 5671 5673 5674 5675 5675 5675 5675 5674 5672 5670 5669 5668 5667 5665 5664 5662 5661 5660 5658 5656 5653 5650 5647 5645 5641 5638 5635 5632 5629 5626 5623 5620 5618 5616 5614 5612
5646 5648 5651 5653 5655 5657 5660 5662 5663 5664 5666 5667 5668 5668 5667 5666 5663 5661 5661 5661 5660 5659 5658 5656 5655 5654 5652 5650 5647 5644 5641 5638 5636 5632 5629 5627 5624 5622 5620 5617 5615 5613 5611 5609
5644 5646 5647 5648 5649 5650 5652 5654 5656 5657 5658 5660 5661 5660 5659 5657 5655 5654 5653 5653 5652 5651 5651 5651 5650 5648 5645 5643 5641 5639 5636 5633 5630 5627 5624 5622 5619 5617 5615 5613 5611 5609 5607 5604
5639 5640 5642 5644 5644 5645 5646 5647 5649 5650 5652 5652 5652 5651 5651 5650 5649 5647 5645 5644 5643 5643 5645 5645 5643 5641 5639 5637 5635 5633 5630 5627 5624 5622 5619 5617 5614 5612 5610 5608 5607 5605 5602 5599
5633 5635 5637 5638 5639 5639 5639 5641 5642 5642 5644 5645 5644 5644 5643 5642 5642 5640 5638 5636 5637 5638 5639 5638 5636 5635 5633 5631 5629 5627 5625 5622 5620 5617 5614 5612 5610 5608 5606 5604 5602 5600 5597 5595
5626 5628 5629 5630 5631 5632 5633 5634 5635 5635 5637 5638 5638 5638 5638 5636 5635 5633 5631 5630 5632 5632 5632 5631 5630 5629 5628 5625 5623 5621 5619 5617 5615 5612 5610 5607 5605 5602 5600 5599 5597 5595 5592 5590
5620 5621 5622 5623 5623 5624 5626 5626 5628 5629 5630 5631 5631 5631 5630 5630 5629 5627 5626 5625 5626 5626 5625 5625 5624 5623 5621 5619 5618 5616 5613 5611 5609 5607 5604 5601 5599 5596 5594 5593 5591 5589 5586 5584
5613 5615 5616 5616 5616 5617 5618 5620 5621 5622 5623 5624 5624 5624 5624 5624 5622 5620 5619 5621 5620 5620 5620 5619 5618 5616 5614 5613 5611 5609 5607 5605 5603 5600 5598 5595 5593 5591 5588 5587 5585 5583 5580 5578
5607 5609 5610 5610 5610 5611 5611 5612 5614 5615 5617 5618 5618 5618 5618 5617 5616 5616 5616 5616 5615 5614 5613 5612 5611 5609 5608 5607 5605 5603 5601 5599 5596 5594 5591 5588 5586 5584 5582 5579 5578 5576 5574 5572
5603 5604 5606 5606 5606 5606 5606 5607 5608 5609 5611 5611 5612 5612 5611 5611 5610 5610 5609 5609 5608 5607 5606 5605 5604 5603 5602 5600 5598 5596 5594 5592 5590 5587 5584 5581 5578 5576 5573 5572 5570 5568 5567 5565
5598 5599 5600 5601 5601 5602 5602 5602 5603 5604 5604 5605 5606 5606 5606 5605 5604 5602 5601 5601 5600 5600 5600 5599 5598 5597 5595 5593 5591 5589 5587 5585 5582 5579 5577 5574 5571 5568 5566 5565 5563 5561 5559 5557
5594 5595 5596 5597 5598 5598 5599 5598 5598 5599 5600 5600 5600 5600 5600 5599 5597 5596 5594 5593 5593 5593 5592 5591 5590 5589 5587 5585 5584 5581 5579 5576 5574 5572 5569 5567 5564 5562 5559 5557 5555 5553 5551 5549